星链-3504 (STARLINK-3504 )

导读

STARLINK-3504是美国太空探索技术公司星链星座的成员,于2022年3月3日发射升空,属于星链项目的第二代组网卫星,主要为全球提供低延迟、高速率的卫星互联网服务,运行在近地轨道,依托星链庞大星座组网,可覆盖偏远地区等地面网络难覆盖区域,也兼具民用与部分特殊场景应用功能。

基本信息
目录编号:
51881
目录名称:
STARLINK-3504
国际标识:
2022-022AF
轨道中心:
EARTH
卫星名称:
星链-3504
卫星全名:
星链-3504 (STARLINK-3504 )
卫星状态:
在轨 (已飞行1653 天)
发射日期:
2022-03-03 UTC
国别 :
美国 (US)
星等 :
--
该卫星已列入 空间交会检测服务 Space Conjunction Data Service (SCDS) ,当前飞行风险评估等级: 无高风险
轨道信息
数据来源 国际轨道数据
星历时间: 2026-09-11T13:16:33+0800
11小时前
查看轨道信息
半长轴: 6840.827km
偏心率: 0.0000542
轨道倾角: 53.160°
近地点辐角 22.733°
升交点赤经 232.742°
平近点角 337.370°
近地点: 462.319km
远地点: 463.061km
周期: 93.847分钟
每日圈数: 15.344047
详细信息
固有亮度:
5
最大亮度:
2.5
卫星平台:
Starlink v1.5
覆盖范围:
全球
运营商:
太空探索技术公司
运营商所在国:
美国
制造商(研发单位):
太空探索技术公司
制造商所在国:
美国
使用方式:
暂无
卫星简介
星链(Starlink)计划是由太空探索技术公司(SpaceX)提出的一个巨型低轨卫星互联网星座项目,计划在2019年至2024年间在太空搭建由约1.2万颗卫星组成的“星链”网络,其中1584颗将部署在地球上空550千米处的近地轨道,并从2020年开始工作。该卫星仍在工作。
2D轨道图
3D轨道图
轨道高度分析图
轨道倾角分析图
轨道综合分析图
查看轨道综合分析图
交会数据列表
事件ID 空间交会对象 最接近时刻(TCA) 交会距离 交会风险概率(CRP) 交会风险指数(CRI) 操作
CDM_260913-100405-188106-420821
2026-09-13T
10:04:00+0000
0.626 km
远距离
3.824718E-5 中风险 0.67
CDM_260914-052805-188106-562821
2026-09-14T
05:28:25+0000
1.514 km
极远距离
3.986731E-6 低风险 0.47
CDM_260913-122405-188106-420821
2026-09-13T
12:24:41+0000
1.555 km
极远距离
1.937665E-6 低风险 0.41
CDM_260912-171504-777105-188122
2026-09-12T
17:15:24+0000
2.927 km
极远距离
1.236201E-6 低风险 0.37
CDM_260912-195705-188105-407421
2026-09-12T
19:57:12+0000
2.746 km
极远距离
3.881437E-7 极低风险 0.27
与全量物体交会距离演化趋势
与全量物体交会风险概率演化趋势